Location: Falniów
(50.3639°N, 19.9642°E)
Time: 19:53:42
(UTC+00:00)

SL-08 R/B - Pass Details

Date: 21 April 2026
Orbit: 667 x 728 km, 98.5° (Epoch: 13 May)

Event Time Altitude Azimuth Distance (km) Brightness Sun altitude
Rises 21:02:45 0° 2° (N) 3,159 7.7 -24.1°
Reaches altitude 10° 21:05:53 10° 341° (NNW) 2,236 7.0 -24.3°
Maximum altitude 21:08:42 16° 306° (NW) 1,882 6.2 -24.5°
Drops below altitude 10° 21:11:30 10° 271° (W) 2,229 6.2 -24.7°
Sets 21:14:37 0° 249° (WSW) 3,142 6.7 -24.9°
